| time (UTC) | temp C | wind direction | speed KPH | gust KPH | rain 1hr cm | rain 24hr cm | rain mn cm | humidity % | barometer mb |
| 20260505122048 | 21 | 123 | 1.6 | 6.4 | 0.00 | 0.00 | 0.00 | 58 | 1007.9 |
| 20260505114032 | 21 | 194 | 3.2 | 9.7 | 0.00 | 0.00 | 0.00 | 59 | 1008.1 |
| 20260505102105 | 21 | 117 | 6.4 | 11.3 | 0.00 | 0.00 | 0.00 | 64 | 1008.9 |
| 20260505094050 | 20 | 135 | 8.0 | 14.5 | 0.00 | 0.00 | 0.00 | 66 | 1009.2 |
| 20260505090036 | 19 | 141 | 6.4 | 14.5 | 0.00 | 0.00 | 0.00 | 67 | 1009.5 |
| 20260505082022 | 19 | 117 | 6.4 | 11.3 | 0.00 | 0.00 | 0.00 | 72 | 1009.9 |
| 20260505074109 | 18 | 119 | 4.8 | 6.4 | 0.00 | 0.00 | 0.00 | 73 | 1010.1 |
| 20260505070054 | 16 | 58 | 4.8 | 11.3 | 0.00 | 0.00 | 0.00 | 76 | 1010.3 |
| 20260505062041 | 17 | 48 | 1.6 | 6.4 | 0.00 | 0.00 | 0.00 | 75 | 1010.5 |
| 20260505054027 | 13 | 268 | 1.6 | 6.4 | 0.00 | 0.00 | 0.00 | 89 | 1010.5 |
| 20260505050114 | 13 | 158 | 0.0 | 3.2 | 0.00 | 0.00 | 0.00 | 89 | 1010.5 |
| 20260505034046 | 12 | 269 | 1.6 | 6.4 | 0.00 | 0.00 | 0.00 | 91 | 1010.4 |
| 20260505030032 | 13 | 326 | 3.2 | 6.4 | 0.00 | 0.00 | 0.00 | 86 | 1010.7 |
| 20260505022019 | 13 | 0.0 | 0.0 | 0.00 | 0.00 | 0.00 | 85 | 1011.4 | |
| 20260505014105 | 14 | 0.0 | 3.2 | 0.00 | 0.00 | 0.00 | 81 | 1011.2 | |
| 20260505010051 | 15 | 281 | 1.6 | 3.2 | 0.00 | 0.00 | 0.00 | 79 | 1011.5 |
| 20260505002037 | 15 | 71 | 1.6 | 6.4 | 0.00 | 0.00 | 0.00 | 77 | 1012.0 |
| 20260504234022 | 15 | 0.0 | 3.2 | 0.00 | 0.00 | 0.00 | 74 | 1012.3 | |
| 20260504230109 | 15 | 87 | 1.6 | 3.2 | 0.00 | 0.00 | 0.00 | 73 | 1012.6 |
| 20260504222055 | 16 | 317 | 3.2 | 9.7 | 0.00 | 0.00 | 0.00 | 69 | 1013.0 |
| 20260504214041 | 17 | 329 | 3.2 | 9.7 | 0.00 | 0.00 | 0.00 | 67 | 1013.1 |
| 20260504210026 | 17 | 49 | 1.6 | 3.2 | 0.00 | 0.00 | 0.00 | 60 | 1013.1 |
| 20260504202112 | 17 | 263 | 1.6 | 3.2 | 0.00 | 0.00 | 0.00 | 61 | 1013.1 |
| 20260504194058 | 17 | 265 | 3.2 | 6.4 | 0.00 | 0.00 | 0.00 | 56 | 1013.1 |
| 20260504190044 | 20 | 96 | 4.8 | 12.9 | 0.00 | 0.00 | 0.00 | 45 | 1013.1 |
| 20260504182030 | 18 | 290 | 3.2 | 6.4 | 0.00 | 0.00 | 0.00 | 60 | 1013.4 |
| 20260504174015 | 20 | 293 | 3.2 | 3.2 | 0.00 | 0.00 | 0.00 | 58 | 1013.2 |